This demonstration page uses our WeatherBlox Daily Observations layout. Learn more.

Left ArrowRight Arrow

39.92423, -83.80882

Hourly Observations for March 12, 2019

Temp ( °F °C ) Dew Point ( °F °C ) Humidity (%) Winds ( mph kmh ) Pressure ( in mb ) Visibility ( mi km ) Precip ( " mm )
12:56 am 00:56 Clear 32 0 29 -1.7 88 88 W 6 9 30.37 1029 10 16.0934 0 0
1:56 am 01:56 Clear 31 -0.6 28 -2.2 89 89 W 6 9 30.38 1029 10 16.0934 0 0
2:56 am 02:56 Clear 30 -1.1 28 -2.2 92 92 WNW 7 11 30.39 1029 10 16.0934 0 0
3:56 am 03:56 Clear 29 -1.7 27 -2.8 92 92 NW 3 6 30.4 1029 10 16.0934 0 0
4:56 am 04:56 Clear 28 -2.2 27 -2.8 96 96 W 6 9 30.4 1030 10 16.0934 0 0
5:56 am 05:56 Clear 28 -2.2 27 -2.8 96 96 NW 3 6 30.4 1030 10 16.0934 0 0
6:56 am 06:56 Clear 27 -2.8 26 -3.3 96 96 Calm 30.42 1030 10 16.0934 0 0
7:56 am 07:56 Sunny with Mist and Fog 25 -3.9 25 -3.9 100 100 S 3 6 30.42 1030 4 6.43736 0 0
8:56 am 08:56 Sunny with Mist and Fog 28 -2.2 28 -2.2 100 100 Calm 30.43 1031 5 8.0467 0 0
9:56 am 09:56 Sunny 32 0 25 -3.9 75 75 E 5 7 30.43 1031 10 16.0934 0 0
10:56 am 10:56 Sunny 34 1.1 23 -5 64 64 Calm 30.45 1031 10 16.0934 0 0
11:56 am 11:56 Sunny 37 2.8 24 -4.4 59 59 S 3 6 30.42 1030 10 16.0934 0 0
12:56 pm 12:56 Sunny 39 3.9 22 -5.6 50 50 VRB 3 6 30.42 1030 10 16.0934 0 0
1:56 pm 13:56 Sunny 43 6.1 23 -5 45 45 Calm 30.41 1030 10 16.0934 0 0
2:56 pm 14:56 Sunny 44 6.7 22 -5.6 41 41 Calm 30.38 1029 7 11.26538 0 0
3:56 pm 15:56 Sunny 46 7.8 20 -6.7 35 35 WNW 3 6 30.35 1028 10 16.0934 0 0
4:56 pm 16:56 Sunny 45 7.2 19 -7.2 35 35 SSE 3 6 30.34 1027 10 16.0934 0 0
5:56 pm 17:56 Sunny 45 7.2 22 -5.6 40 40 E 3 6 30.33 1027 10 16.0934 0 0
6:56 pm 18:56 Sunny 44 6.7 28 -2.2 53 53 SSE 7 11 30.33 1027 10 16.0934 0 0
7:56 pm 19:56 Clear 41 5 27 -2.8 57 57 SSE 5 7 30.33 1027 10 16.0934 0 0
8:56 pm 20:56 Clear 38 3.3 25 -3.9 60 60 SE 6 9 30.32 1027 10 16.0934 0 0
9:56 pm 21:56 Clear 37 2.8 26 -3.3 65 65 SE 7 11 30.29 1026 10 16.0934 0 0
10:56 pm 22:56 Clear 36 2.2 27 -2.8 70 70 SE 9 15 30.28 1026 10 16.0934 0 0
11:56 pm 23:56 Clear 35 1.7 26 -3.3 70 70 SE 8 13 30.25 1025 10 16.0934 0 0

Powered by AerisWeather